,

(GMT )
Munich

Weather History for EDDM - May, 2018

Change the Weather History Date:

Thursday, May 17, 2018

  Actual Average Record
Temperature  
Mean Temperature 55 °F -  
Max Temperature 60 °F 65 °F 82 °F (2002)
Min Temperature 50 °F 46 °F 33 °F (2012)
Degree Days  
Heating Degree Days 10    
Growing Degree Days 5 (Base 50)    
Moisture  
Dew Point 51 °F    
Average Humidity 88    
Maximum Humidity 100    
Minimum Humidity 68    
Precipitation  
Precipitation 0.00 in - - ()
Sea Level Pressure  
Sea Level Pressure 30.01 in    
Wind  
Wind Speed 8 mph ()    
Max Wind Speed 13 mph    
Max Gust Speed -    
Visibility 5.8 miles    
Events Rain    
Averages and records for this station are not official NWS values.
T = Trace of Precipitation, MM = Missing Value Source: Averaged Metar Reports

Daily Weather History Graph

Daily Weather History Graph

Search for Another Location

Airport or City:

Astronomy

May. 17, 2018 Rise Set
Actual Time 5:31 AM CEST 8:48 PM CEST
Civil Twilight 4:54 AM CEST 9:25 PM CEST
Nautical Twilight 4:05 AM CEST 10:15 PM CEST
Astronomical Twilight 3:02 AM CEST 11:18 PM CEST
Moon 7:20 AM CEST (5/17) 11:05 PM CEST (5/17)
Length of Visible Light 16h 31m
Length of Day
15h 16m
Waxing Crescent, 5% of the Moon is Illuminated
May 17
Waxing Crescent
May 22
First Quarter
May 29
Full
Jun 6
Last Quarter
Jun 13
New

Hourly Weather History & Observations

Time (CEST) Temp. Dew Point Humidity Pressure Visibility Wind Dir Wind Speed Gust Speed Precip Events Conditions
12:20 AM 51.8 °F 50.0 °F 94% 29.98 in 6.2 mi NW 3.5 mph - N/A Rain Light Rain Showers
12:50 AM 51.8 °F 50.0 °F 94% 29.98 in 3.7 mi West 4.6 mph - N/A Rain Rain Showers
1:20 AM 51.8 °F 50.0 °F 94% 29.98 in 2.5 mi West 6.9 mph - N/A Rain Rain Showers
1:50 AM 50.0 °F 48.2 °F 94% 29.98 in 5.6 mi WSW 11.5 mph - N/A Rain Light Rain Showers
2:20 AM 50.0 °F 48.2 °F 94% 29.98 in 5.6 mi WSW 10.4 mph - N/A Rain Light Rain Showers
2:50 AM 50.0 °F 50.0 °F 100% 29.98 in 6.2 mi WSW 11.5 mph - N/A   Mostly Cloudy
3:20 AM 50.0 °F 50.0 °F 100% 29.98 in 6.2 mi West 9.2 mph - N/A Rain Light Rain Showers
3:50 AM 50.0 °F 50.0 °F 100% 29.98 in 5.6 mi WSW 10.4 mph - N/A Rain Light Rain Showers
4:20 AM 50.0 °F 50.0 °F 100% 29.98 in 5.0 mi WSW 9.2 mph - N/A Rain Light Rain Showers
4:50 AM 50.0 °F 50.0 °F 100% 29.98 in 5.0 mi WSW 10.4 mph - N/A Rain Light Rain Showers
5:20 AM 50.0 °F 50.0 °F 100% 29.98 in 5.0 mi West 8.1 mph - N/A   Mostly Cloudy
5:50 AM 50.0 °F 48.2 °F 94% 29.98 in 6.2 mi West 8.1 mph - N/A   Mostly Cloudy
6:20 AM 51.8 °F 50.0 °F 94% 29.98 in 6.2 mi West 8.1 mph - N/A   Mostly Cloudy
6:50 AM 51.8 °F 50.0 °F 94% 29.98 in 6.2 mi West 8.1 mph - N/A   Mostly Cloudy
7:20 AM 51.8 °F 50.0 °F 94% 29.98 in 6.2 mi West 10.4 mph - N/A   Mostly Cloudy
7:50 AM 51.8 °F 50.0 °F 94% 29.98 in 6.2 mi West 12.7 mph - N/A   Mostly Cloudy
8:20 AM 53.6 °F 50.0 °F 88% 29.98 in 6.2 mi West 10.4 mph - N/A Rain Light Rain Showers
8:50 AM 51.8 °F 50.0 °F 94% 30.01 in 6.2 mi West 9.2 mph - N/A Rain Light Rain Showers
9:20 AM 53.6 °F 50.0 °F 88% 30.01 in 6.2 mi West 9.2 mph - N/A   Mostly Cloudy
9:50 AM 53.6 °F 50.0 °F 88% 30.01 in 6.2 mi West 9.2 mph - N/A   Mostly Cloudy
10:20 AM 55.4 °F 51.8 °F 88% 30.01 in 6.2 mi West 9.2 mph - N/A   Mostly Cloudy
10:50 AM 57.2 °F 51.8 °F 82% 30.01 in 6.2 mi West 12.7 mph - N/A   Mostly Cloudy
11:20 AM 57.2 °F 50.0 °F 77% 30.01 in 6.2 mi West 11.5 mph - N/A   Mostly Cloudy
11:50 AM 57.2 °F 50.0 °F 77% 30.01 in 6.2 mi West 9.2 mph - N/A   Mostly Cloudy
12:20 PM 57.2 °F 50.0 °F 77% 30.01 in 6.2 mi West 9.2 mph - N/A   Mostly Cloudy
12:50 PM 57.2 °F 50.0 °F 77% 30.01 in 6.2 mi West 8.1 mph - N/A   Mostly Cloudy
1:20 PM 59.0 °F 51.8 °F 77% 30.01 in 6.2 mi West 10.4 mph - N/A   Mostly Cloudy
1:50 PM 59.0 °F 51.8 °F 77% 30.01 in 6.2 mi WSW 11.5 mph - N/A   Mostly Cloudy
2:20 PM 60.8 °F 53.6 °F 77% 30.01 in 6.2 mi WSW 10.4 mph - N/A   Mostly Cloudy
2:50 PM 60.8 °F 50.0 °F 68% 30.01 in 6.2 mi West 6.9 mph - N/A Rain Rain Showers
3:20 PM 55.4 °F 51.8 °F 88% 30.01 in 6.2 mi West 8.1 mph - N/A Rain Rain Showers
3:50 PM 57.2 °F 51.8 °F 82% 30.01 in 6.2 mi West 6.9 mph - N/A Rain Light Rain Showers
4:20 PM 57.2 °F 53.6 °F 88% 30.01 in 6.2 mi West 12.7 mph - N/A   Mostly Cloudy
4:50 PM 57.2 °F 51.8 °F 82% 30.01 in 6.2 mi West 11.5 mph - N/A   Mostly Cloudy
5:20 PM 57.2 °F 53.6 °F 88% 30.01 in 6.2 mi West 10.4 mph - N/A   Mostly Cloudy
5:50 PM 57.2 °F 53.6 °F 88% 30.04 in 6.2 mi WSW 10.4 mph - N/A   Mostly Cloudy
6:20 PM 57.2 °F 53.6 °F 88% 30.04 in 6.2 mi West 9.2 mph - N/A   Mostly Cloudy
6:50 PM 59.0 °F 53.6 °F 82% 30.04 in 6.2 mi West 8.1 mph - N/A   Mostly Cloudy
7:20 PM 59.0 °F 51.8 °F 77% 30.04 in 6.2 mi West 6.9 mph - N/A   Mostly Cloudy
7:50 PM 59.0 °F 51.8 °F 77% 30.04 in 6.2 mi West 6.9 mph - N/A   Mostly Cloudy
8:20 PM 57.2 °F 51.8 °F 82% 30.04 in 6.2 mi West 8.1 mph - N/A   Mostly Cloudy
8:50 PM 55.4 °F 51.8 °F 88% 30.04 in 6.2 mi West 9.2 mph - N/A   Mostly Cloudy
9:20 PM 55.4 °F 51.8 °F 88% 30.06 in 6.2 mi West 6.9 mph - N/A   Mostly Cloudy
9:50 PM 55.4 °F 51.8 °F 88% 30.06 in 5.6 mi West 6.9 mph - N/A   Mostly Cloudy
10:20 PM 55.4 °F 51.8 °F 88% 30.06 in 5.6 mi West 8.1 mph - N/A   Mostly Cloudy
10:50 PM 55.4 °F 51.8 °F 88% 30.06 in 4.3 mi WSW 9.2 mph - N/A Rain Light Rain Showers
11:20 PM 55.4 °F 51.8 °F 88% 30.06 in 4.3 mi West 10.4 mph - N/A Rain Light Rain Showers
11:50 PM 53.6 °F 51.8 °F 94% 30.06 in 4.3 mi West 6.9 mph - N/A Rain Light Rain Showers